FFL1201 KASE-KSBA

Flight info

Callsign FFL1201
Flight time 1h 56m
Altitude 40000
Route LINDZ1 LINDZ DCT JNC DCT AHOWW DCT BLD DCT HEC PITBL2
Aircraft CL60/M-SBDE1E2E3FGHIJ1J4J5J7M3RWXYZ/LB1V1D1

Departure

Time 2026-04-21 22:05
Airport Aspen-Pitkin County Airport (Sardy Field) (KASE)

Arrival

Time 2026-04-22 00:02
Airport Santa Barbara Municipal Airport (KSBA)
Time Latitude Longitude Altitude Speed Heading
2026-04-21 21:41 39.22246 -106.86681 7808 ft 0 kts 73°
2026-04-21 22:01 39.22259 -106.86655 7809 ft 10 kts 14°
2026-04-21 22:01 39.22220 -106.86713 7808 ft 11 kts 172°
2026-04-21 22:01 39.22157 -106.86686 7813 ft 8 kts 160°
2026-04-21 22:02 39.22100 -106.86660 7817 ft 8 kts 161°
2026-04-21 22:02 39.22037 -106.86629 7822 ft 10 kts 157°
2026-04-21 22:02 39.21957 -106.86591 7828 ft 13 kts 160°
2026-04-21 22:02 39.21860 -106.86545 7835 ft 16 kts 160°
2026-04-21 22:03 39.21746 -106.86492 7843 ft 18 kts 159°
2026-04-21 22:03 39.21616 -106.86430 7852 ft 21 kts 158°
2026-04-21 22:03 39.21466 -106.86359 7862 ft 24 kts 161°
2026-04-21 22:03 39.21307 -106.86282 7871 ft 20 kts 159°
2026-04-21 22:04 39.21217 -106.86243 7876 ft 8 kts 174°
2026-04-21 22:04 39.21174 -106.86314 7874 ft 15 kts 255°
2026-04-21 22:04 39.21186 -106.86350 7872 ft 5 kts 355°
2026-04-21 22:04 39.21361 -106.86433 7862 ft 69 kts 339°
2026-04-21 22:05 39.22123 -106.86798 7809 ft 156 kts 338°
2026-04-21 22:05 39.23280 -106.87291 8240 ft 186 kts 339°
2026-04-21 22:05 39.24576 -106.87510 9093 ft 197 kts 349°
2026-04-21 22:05 39.25852 -106.88084 9795 ft 197 kts 318°
2026-04-21 22:06 39.26664 -106.89576 10266 ft 217 kts 288°
2026-04-21 22:06 39.27099 -106.91460 11031 ft 229 kts 282°
2026-04-21 22:06 39.27478 -106.93582 11379 ft 262 kts 282°
2026-04-21 22:06 39.27911 -106.96080 11367 ft 307 kts 281°
2026-04-21 22:07 39.28400 -106.98906 11563 ft 341 kts 282°
2026-04-21 22:07 39.29291 -107.01820 12302 ft 358 kts 300°
2026-04-21 22:07 39.30850 -107.04324 13153 ft 368 kts 311°
2026-04-21 22:07 39.32574 -107.06771 14136 ft 373 kts 311°
2026-04-21 22:08 39.34318 -107.09267 15104 ft 379 kts 310°
2026-04-21 22:08 39.36053 -107.11814 16045 ft 384 kts 306°
2026-04-21 22:08 39.37390 -107.14803 17049 ft 385 kts 289°
2026-04-21 22:08 39.37984 -107.18130 18014 ft 385 kts 272°
2026-04-21 22:09 39.37765 -107.21569 18928 ft 386 kts 256°
2026-04-21 22:09 39.37119 -107.24919 19802 ft 390 kts 254°
2026-04-21 22:09 39.36451 -107.28324 20663 ft 395 kts 254°
2026-04-21 22:09 39.35778 -107.31768 21491 ft 400 kts 254°
2026-04-21 22:10 39.35098 -107.35241 22293 ft 404 kts 254°
2026-04-21 22:10 39.34404 -107.38781 23066 ft 409 kts 254°
2026-04-21 22:10 39.33704 -107.42349 23833 ft 413 kts 254°
2026-04-21 22:10 39.32991 -107.45976 24614 ft 416 kts 254°
2026-04-21 22:11 39.32281 -107.49580 25314 ft 420 kts 254°
2026-04-21 22:11 39.31553 -107.53275 25994 ft 424 kts 254°
2026-04-21 22:11 39.30833 -107.56921 26670 ft 426 kts 254°
2026-04-21 22:11 39.30093 -107.60659 27279 ft 430 kts 254°
2026-04-21 22:12 39.29355 -107.64384 27847 ft 433 kts 254°
2026-04-21 22:12 39.28610 -107.68135 28402 ft 436 kts 253°
2026-04-21 22:12 39.27858 -107.71916 28934 ft 438 kts 253°
2026-04-21 22:12 39.27099 -107.75727 29445 ft 441 kts 253°
2026-04-21 22:13 39.26338 -107.79542 29907 ft 443 kts 253°
2026-04-21 22:13 39.25568 -107.83394 30447 ft 443 kts 253°
2026-04-21 22:13 39.24798 -107.87241 31038 ft 441 kts 253°
2026-04-21 22:13 39.24042 -107.91008 31655 ft 438 kts 253°
2026-04-21 22:14 39.23278 -107.94810 32280 ft 434 kts 253°
2026-04-21 22:14 39.22531 -107.98524 32853 ft 431 kts 253°
2026-04-21 22:14 39.21778 -108.02255 33411 ft 428 kts 253°
2026-04-21 22:14 39.21038 -108.05919 33916 ft 427 kts 253°
2026-04-21 22:15 39.20290 -108.09615 34460 ft 425 kts 253°
2026-04-21 22:15 39.19539 -108.13314 34959 ft 424 kts 253°
2026-04-21 22:15 39.18799 -108.16955 35428 ft 424 kts 253°
2026-04-21 22:15 39.18057 -108.20602 35875 ft 423 kts 253°
2026-04-21 22:16 39.17306 -108.24283 36348 ft 422 kts 252°
2026-04-21 22:16 39.16562 -108.27926 36766 ft 422 kts 252°
2026-04-21 22:16 39.15817 -108.31564 37151 ft 422 kts 252°
2026-04-21 22:16 39.15073 -108.35196 37482 ft 423 kts 252°
2026-04-21 22:17 39.14319 -108.38866 37808 ft 423 kts 252°
2026-04-21 22:17 39.13572 -108.42497 38110 ft 423 kts 252°
2026-04-21 22:17 39.12822 -108.46137 38446 ft 423 kts 252°
2026-04-21 22:17 39.12063 -108.49815 38741 ft 423 kts 252°
2026-04-21 22:18 39.11309 -108.53464 39010 ft 423 kts 252°
2026-04-21 22:18 39.10554 -108.57107 39271 ft 423 kts 252°
2026-04-21 22:18 39.09801 -108.60738 39514 ft 423 kts 252°
2026-04-21 22:18 39.09041 -108.64395 39721 ft 424 kts 252°
2026-04-21 22:19 39.08276 -108.68070 39947 ft 424 kts 251°
2026-04-21 22:19 39.07518 -108.71706 40154 ft 423 kts 251°
2026-04-21 22:19 39.06749 -108.75386 40172 ft 427 kts 251°
2026-04-21 22:20 39.04639 -108.82488 40169 ft 428 kts 239°
2026-04-21 22:20 39.01831 -108.89279 40166 ft 434 kts 239°
2026-04-21 22:21 38.99005 -108.96121 40185 ft 439 kts 239°
2026-04-21 22:21 38.96121 -109.03090 40182 ft 442 kts 239°
2026-04-21 22:22 38.93235 -109.10052 40169 ft 442 kts 239°
2026-04-21 22:22 38.90370 -109.16948 40169 ft 441 kts 239°
2026-04-21 22:23 38.87488 -109.23870 40164 ft 440 kts 239°
2026-04-21 22:23 38.84611 -109.30765 40151 ft 440 kts 239°
2026-04-21 22:24 38.81728 -109.37660 40167 ft 439 kts 239°
2026-04-21 22:24 38.78851 -109.44526 40143 ft 438 kts 239°
2026-04-21 22:25 38.75968 -109.51392 40108 ft 438 kts 239°
2026-04-21 22:25 38.73100 -109.58207 40104 ft 437 kts 239°
2026-04-21 22:26 38.70198 -109.65086 40099 ft 437 kts 238°
2026-04-21 22:26 38.67320 -109.71896 40085 ft 437 kts 238°
2026-04-21 22:27 38.64447 -109.78678 40097 ft 436 kts 238°
2026-04-21 22:27 38.61566 -109.85462 40107 ft 435 kts 238°
2026-04-21 22:28 38.58682 -109.92242 40115 ft 434 kts 238°
2026-04-21 22:28 38.55810 -109.98980 40123 ft 433 kts 238°
2026-04-21 22:29 38.52933 -110.05714 40135 ft 433 kts 239°
2026-04-21 22:29 38.50052 -110.12442 40142 ft 432 kts 238°
2026-04-21 22:30 38.47156 -110.19191 40152 ft 432 kts 238°
2026-04-21 22:30 38.44291 -110.25853 40155 ft 432 kts 238°
2026-04-21 22:31 38.41402 -110.32556 40156 ft 432 kts 238°
2026-04-21 22:31 38.38508 -110.39258 40159 ft 431 kts 238°
2026-04-21 22:32 38.35626 -110.45919 40145 ft 431 kts 238°
2026-04-21 22:32 38.32738 -110.52578 40125 ft 431 kts 238°
2026-04-21 22:33 38.29833 -110.59264 40120 ft 430 kts 238°
2026-04-21 22:33 38.26952 -110.65880 40123 ft 429 kts 238°
2026-04-21 22:34 38.24066 -110.72493 40130 ft 429 kts 238°
2026-04-21 22:34 38.21175 -110.79106 40157 ft 429 kts 238°
2026-04-21 22:35 38.18267 -110.85742 40168 ft 429 kts 238°
2026-04-21 22:35 38.15361 -110.92361 40168 ft 430 kts 238°
2026-04-21 22:36 38.11013 -111.02238 40170 ft 429 kts 238°
2026-04-21 22:36 38.08103 -111.08833 40180 ft 428 kts 238°
2026-04-21 22:37 38.05187 -111.15425 40194 ft 428 kts 238°
2026-04-21 22:37 38.02289 -111.21966 40209 ft 428 kts 238°
2026-04-21 22:38 37.99378 -111.28521 40222 ft 428 kts 238°
2026-04-21 22:38 37.96447 -111.35108 40231 ft 427 kts 239°
2026-04-21 22:39 37.93532 -111.41647 40235 ft 427 kts 239°
2026-04-21 22:39 37.90628 -111.48147 40242 ft 426 kts 239°
2026-04-21 22:40 37.87711 -111.54663 40243 ft 425 kts 239°
2026-04-21 22:40 37.84814 -111.61121 40244 ft 425 kts 239°
2026-04-21 22:41 37.81894 -111.67618 40258 ft 424 kts 239°
2026-04-21 22:41 37.78981 -111.74086 40258 ft 424 kts 239°
2026-04-21 22:42 37.76073 -111.80531 40270 ft 422 kts 239°
2026-04-21 22:42 37.73160 -111.86974 40254 ft 422 kts 239°
2026-04-21 22:43 37.70257 -111.93381 40252 ft 422 kts 239°
2026-04-21 22:43 37.67347 -111.99793 40242 ft 421 kts 239°
2026-04-21 22:44 37.64433 -112.06201 40216 ft 421 kts 240°
2026-04-21 22:44 37.61548 -112.12530 40223 ft 420 kts 240°
2026-04-21 22:45 37.58622 -112.18941 40215 ft 420 kts 239°
2026-04-21 22:45 37.55709 -112.25308 40215 ft 420 kts 240°
2026-04-21 22:46 37.52801 -112.31652 40215 ft 420 kts 240°
2026-04-21 22:46 37.49887 -112.37999 40221 ft 420 kts 240°
2026-04-21 22:47 37.46978 -112.44319 40212 ft 420 kts 240°
2026-04-21 22:47 37.44043 -112.50687 40194 ft 420 kts 239°
2026-04-21 22:48 37.41121 -112.57013 40188 ft 418 kts 240°
2026-04-21 22:48 37.38205 -112.63316 40192 ft 417 kts 240°
2026-04-21 22:49 37.35287 -112.69607 40175 ft 418 kts 240°
2026-04-21 22:49 37.32371 -112.75884 40169 ft 419 kts 239°
2026-04-21 22:50 37.29430 -112.82205 40146 ft 418 kts 239°
2026-04-21 22:50 37.26501 -112.88485 40162 ft 417 kts 239°
2026-04-21 22:51 37.23584 -112.94728 40149 ft 418 kts 239°
2026-04-21 22:51 37.20656 -113.00985 40151 ft 417 kts 239°
2026-04-21 22:52 37.17717 -113.07252 40131 ft 417 kts 239°
2026-04-21 22:52 37.14781 -113.13501 40111 ft 417 kts 239°
2026-04-21 22:53 37.11771 -113.19714 40078 ft 416 kts 234°
2026-04-21 22:53 37.08158 -113.25288 40065 ft 415 kts 231°
2026-04-21 22:54 37.04485 -113.30853 40042 ft 415 kts 231°
2026-04-21 22:54 37.00809 -113.36418 40026 ft 414 kts 231°
2026-04-21 22:55 36.97156 -113.41940 40013 ft 412 kts 231°
2026-04-21 22:55 36.93500 -113.47461 39999 ft 411 kts 231°
2026-04-21 22:56 36.89869 -113.52939 40019 ft 410 kts 231°
2026-04-21 22:56 36.86228 -113.58422 40050 ft 410 kts 231°
2026-04-21 22:57 36.82601 -113.63876 40037 ft 410 kts 231°
2026-04-21 22:57 36.78960 -113.69342 40049 ft 410 kts 231°
2026-04-21 22:58 36.75321 -113.74798 40073 ft 408 kts 231°
2026-04-21 22:58 36.71691 -113.80231 40026 ft 409 kts 230°
2026-04-21 22:59 36.68083 -113.85624 40019 ft 408 kts 231°
2026-04-21 22:59 36.64447 -113.91049 39987 ft 407 kts 231°
2026-04-21 23:00 36.60823 -113.96448 39970 ft 406 kts 230°
2026-04-21 23:00 36.57214 -114.01815 39957 ft 406 kts 230°
2026-04-21 23:01 36.53609 -114.07169 39968 ft 406 kts 231°
2026-04-21 23:01 36.49977 -114.12554 39945 ft 405 kts 230°
2026-04-21 23:02 36.46351 -114.17921 39939 ft 405 kts 231°
2026-04-21 23:02 36.42743 -114.23253 39934 ft 405 kts 230°
2026-04-21 23:03 36.39137 -114.28574 39943 ft 404 kts 230°
2026-04-21 23:03 36.35506 -114.33923 39942 ft 405 kts 231°
2026-04-21 23:04 36.31891 -114.39241 39937 ft 405 kts 231°
2026-04-21 23:04 36.28284 -114.44537 39934 ft 404 kts 230°
2026-04-21 23:05 36.24641 -114.49879 39940 ft 404 kts 231°
2026-04-21 23:05 36.21018 -114.55183 39922 ft 404 kts 230°
2026-04-21 23:06 36.17388 -114.60488 39910 ft 403 kts 231°
2026-04-21 23:06 36.13765 -114.65774 39897 ft 403 kts 230°
2026-04-21 23:07 36.10161 -114.71025 39902 ft 403 kts 230°
2026-04-21 23:07 36.06525 -114.76314 39893 ft 403 kts 230°
2026-04-21 23:08 36.02900 -114.81580 39895 ft 403 kts 230°
2026-04-21 23:08 35.99251 -114.86839 39903 ft 403 kts 229°
2026-04-21 23:09 35.95511 -114.91951 39912 ft 403 kts 229°
2026-04-21 23:09 35.91739 -114.97093 39925 ft 403 kts 229°
2026-04-21 23:10 35.87981 -115.02208 39919 ft 403 kts 229°
2026-04-21 23:10 35.84224 -115.07313 39931 ft 402 kts 229°
2026-04-21 23:11 35.80472 -115.12404 39931 ft 401 kts 229°
2026-04-21 23:11 35.76733 -115.17470 39952 ft 401 kts 229°
2026-04-21 23:12 35.72981 -115.22546 39957 ft 401 kts 229°
2026-04-21 23:12 35.69239 -115.27600 39979 ft 400 kts 229°
2026-04-21 23:13 35.65478 -115.32671 39972 ft 400 kts 229°
2026-04-21 23:13 35.61746 -115.37697 39987 ft 399 kts 229°
2026-04-21 23:14 35.57997 -115.42739 40000 ft 399 kts 229°
2026-04-21 23:14 35.54257 -115.47761 40004 ft 400 kts 229°
2026-04-21 23:15 35.50508 -115.52785 40004 ft 399 kts 229°
2026-04-21 23:15 35.46753 -115.57812 39993 ft 399 kts 229°
2026-04-21 23:16 35.43007 -115.62819 39987 ft 399 kts 229°
2026-04-21 23:16 35.39242 -115.67845 40002 ft 399 kts 229°
2026-04-21 23:17 35.35489 -115.72845 40000 ft 399 kts 229°
2026-04-21 23:17 35.31752 -115.77815 39988 ft 399 kts 229°
2026-04-21 23:18 35.27988 -115.82817 39980 ft 399 kts 229°
2026-04-21 23:18 35.24225 -115.87811 39953 ft 399 kts 229°
2026-04-21 23:19 35.20493 -115.92754 39941 ft 398 kts 228°
2026-04-21 23:19 35.16733 -115.97728 39913 ft 398 kts 229°
2026-04-21 23:20 35.12983 -116.02682 39927 ft 397 kts 229°
2026-04-21 23:20 35.09224 -116.07641 39928 ft 397 kts 229°
2026-04-21 23:21 35.05492 -116.12555 39907 ft 397 kts 229°
2026-04-21 23:21 35.01725 -116.17507 39920 ft 398 kts 229°
2026-04-21 23:22 34.97969 -116.22440 39939 ft 397 kts 229°
2026-04-21 23:22 34.94208 -116.27371 39915 ft 397 kts 229°
2026-04-21 23:23 34.90465 -116.32273 39944 ft 396 kts 229°
2026-04-21 23:23 34.86705 -116.37188 39966 ft 397 kts 229°
2026-04-21 23:24 34.82957 -116.42118 39967 ft 396 kts 231°
2026-04-21 23:24 34.79997 -116.47683 39961 ft 396 kts 245°
2026-04-21 23:25 34.78554 -116.54139 40009 ft 399 kts 257°
2026-04-21 23:25 34.77594 -116.60791 39979 ft 400 kts 257°
2026-04-21 23:26 34.76602 -116.67400 40022 ft 399 kts 257°
2026-04-21 23:26 34.75621 -116.74040 40048 ft 398 kts 257°
2026-04-21 23:27 34.74630 -116.80634 40039 ft 398 kts 256°
2026-04-21 23:27 34.73639 -116.87234 40013 ft 398 kts 256°
2026-04-21 23:28 34.72651 -116.93810 40050 ft 397 kts 256°
2026-04-21 23:28 34.71652 -117.00403 40028 ft 398 kts 256°
2026-04-21 23:29 34.70648 -117.07015 40033 ft 397 kts 256°
2026-04-21 23:29 34.69645 -117.13615 40028 ft 397 kts 256°
2026-04-21 23:30 34.68638 -117.20187 40038 ft 397 kts 256°
2026-04-21 23:30 34.67632 -117.26743 40050 ft 398 kts 256°
2026-04-21 23:31 34.66610 -117.33374 40078 ft 398 kts 256°
2026-04-21 23:31 34.65597 -117.39921 40094 ft 398 kts 256°
2026-04-21 23:32 34.64570 -117.46532 40091 ft 398 kts 256°
2026-04-21 23:32 34.63545 -117.53119 40050 ft 398 kts 256°
2026-04-21 23:33 34.62522 -117.59668 40062 ft 398 kts 256°
2026-04-21 23:33 34.61482 -117.66288 40030 ft 398 kts 256°
2026-04-21 23:34 34.60453 -117.72824 40039 ft 398 kts 256°
2026-04-21 23:34 34.59408 -117.79422 40057 ft 397 kts 256°
2026-04-21 23:35 34.58372 -117.85955 39926 ft 398 kts 256°
2026-04-21 23:35 34.57851 -117.89230 39461 ft 392 kts 256°
2026-04-21 23:35 34.57343 -117.92437 38956 ft 384 kts 256°
2026-04-21 23:36 34.56844 -117.95580 38487 ft 377 kts 256°
2026-04-21 23:36 34.56353 -117.98657 38037 ft 374 kts 256°
2026-04-21 23:36 34.55855 -118.01753 37548 ft 373 kts 256°
2026-04-21 23:36 34.55358 -118.04841 37067 ft 372 kts 256°
2026-04-21 23:37 34.54863 -118.07909 36571 ft 371 kts 256°
2026-04-21 23:37 34.54374 -118.10938 36094 ft 370 kts 256°
2026-04-21 23:37 34.53885 -118.13978 35600 ft 369 kts 256°
2026-04-21 23:37 34.53387 -118.17059 35115 ft 369 kts 256°
2026-04-21 23:38 34.52894 -118.20100 34632 ft 368 kts 256°
2026-04-21 23:38 34.52402 -118.23132 34130 ft 368 kts 257°
2026-04-21 23:38 34.51912 -118.26146 33658 ft 368 kts 256°
2026-04-21 23:38 34.51414 -118.29210 33157 ft 369 kts 256°
2026-04-21 23:39 34.50924 -118.32218 32687 ft 369 kts 256°
2026-04-21 23:39 34.50421 -118.35299 32181 ft 371 kts 256°
2026-04-21 23:39 34.49890 -118.38342 31695 ft 371 kts 253°
2026-04-21 23:39 34.49109 -118.41290 31185 ft 371 kts 248°
2026-04-21 23:40 34.48256 -118.44250 30710 ft 372 kts 249°
2026-04-21 23:40 34.47439 -118.47213 30184 ft 374 kts 250°
2026-04-21 23:40 34.46629 -118.50174 29719 ft 375 kts 249°
2026-04-21 23:40 34.45797 -118.53169 29207 ft 376 kts 249°
2026-04-21 23:41 34.44961 -118.56157 28725 ft 374 kts 249°
2026-04-21 23:41 34.44128 -118.59146 28217 ft 373 kts 249°
2026-04-21 23:41 34.43312 -118.62086 27729 ft 371 kts 250°
2026-04-21 23:41 34.42489 -118.65057 27244 ft 368 kts 249°
2026-04-21 23:42 34.41677 -118.67971 26753 ft 365 kts 249°
2026-04-21 23:42 34.40872 -118.70849 26280 ft 363 kts 249°
2026-04-21 23:42 34.40070 -118.73719 25795 ft 361 kts 249°
2026-04-21 23:42 34.39262 -118.76607 25304 ft 358 kts 249°
2026-04-21 23:43 34.38470 -118.79447 24852 ft 356 kts 249°
2026-04-21 23:43 34.37684 -118.82257 24379 ft 354 kts 249°
2026-04-21 23:43 34.37060 -118.85121 23916 ft 355 kts 258°
2026-04-21 23:43 34.36872 -118.88096 23558 ft 353 kts 262°
2026-04-21 23:44 34.36693 -118.91018 23311 ft 352 kts 261°
2026-04-21 23:44 34.36475 -118.93996 22962 ft 351 kts 261°
2026-04-21 23:44 34.36268 -118.96896 22634 ft 350 kts 261°
2026-04-21 23:44 34.36070 -118.99836 22312 ft 349 kts 261°
2026-04-21 23:45 34.35875 -119.02744 21989 ft 347 kts 261°
2026-04-21 23:45 34.35467 -119.08539 21340 ft 344 kts 262°
2026-04-21 23:45 34.35298 -119.11418 21027 ft 343 kts 265°
2026-04-21 23:46 34.35413 -119.14305 20612 ft 346 kts 269°
2026-04-21 23:46 34.35578 -119.17188 20090 ft 345 kts 268°
2026-04-21 23:46 34.35709 -119.20046 19579 ft 340 kts 268°
2026-04-21 23:46 34.35833 -119.22881 19146 ft 338 kts 268°
2026-04-21 23:47 34.35964 -119.25711 18693 ft 336 kts 269°
2026-04-21 23:47 34.36100 -119.28509 18240 ft 334 kts 269°
2026-04-21 23:47 34.36232 -119.31306 17796 ft 332 kts 269°
2026-04-21 23:47 34.36358 -119.34075 17258 ft 332 kts 268°
2026-04-21 23:48 34.36481 -119.36845 16810 ft 327 kts 269°
2026-04-21 23:48 34.36604 -119.39597 16386 ft 328 kts 269°
2026-04-21 23:48 34.36728 -119.42326 15955 ft 327 kts 269°
2026-04-21 23:48 34.36785 -119.45085 15462 ft 322 kts 262°
2026-04-21 23:49 34.36311 -119.47688 15000 ft 317 kts 253°
2026-04-21 23:49 34.35729 -119.50223 14610 ft 317 kts 254°
2026-04-21 23:49 34.35194 -119.52797 14245 ft 316 kts 255°
2026-04-21 23:49 34.34667 -119.55371 13878 ft 313 kts 254°
2026-04-21 23:50 34.34133 -119.57897 13499 ft 307 kts 254°
2026-04-21 23:50 34.33605 -119.60375 13150 ft 300 kts 254°
2026-04-21 23:50 34.33094 -119.62804 12911 ft 295 kts 254°
2026-04-21 23:50 34.32596 -119.65185 12665 ft 291 kts 253°
2026-04-21 23:51 34.32104 -119.67534 12425 ft 287 kts 253°
2026-04-21 23:51 34.31613 -119.69862 12183 ft 284 kts 254°
2026-04-21 23:51 34.31126 -119.72170 11938 ft 280 kts 254°
2026-04-21 23:51 34.30651 -119.74433 11693 ft 276 kts 254°
2026-04-21 23:52 34.30186 -119.76650 11447 ft 273 kts 253°
2026-04-21 23:52 34.29716 -119.78870 11198 ft 269 kts 254°
2026-04-21 23:52 34.29254 -119.81041 10951 ft 265 kts 254°
2026-04-21 23:52 34.28803 -119.83177 10708 ft 261 kts 253°
2026-04-21 23:53 34.28360 -119.85284 10375 ft 260 kts 254°
2026-04-21 23:53 34.27995 -119.87410 10050 ft 257 kts 261°
2026-04-21 23:53 34.27845 -119.89548 9690 ft 256 kts 263°
2026-04-21 23:53 34.27687 -119.91696 9353 ft 256 kts 262°
2026-04-21 23:54 34.27503 -119.93838 9011 ft 255 kts 261°
2026-04-21 23:54 34.27323 -119.95972 8686 ft 255 kts 262°
2026-04-21 23:54 34.27159 -119.98056 8347 ft 249 kts 263°
2026-04-21 23:54 34.26995 -120.00136 8029 ft 243 kts 262°
2026-04-21 23:55 34.26831 -120.02129 7702 ft 239 kts 262°
2026-04-21 23:55 34.26753 -120.04108 7383 ft 235 kts 272°
2026-04-21 23:55 34.27185 -120.06012 6965 ft 241 kts 293°
2026-04-21 23:55 34.28239 -120.07602 6568 ft 247 kts 316°
2026-04-21 23:56 34.29797 -120.08547 6051 ft 259 kts 345°
2026-04-21 23:56 34.31601 -120.08682 5636 ft 259 kts 356°
2026-04-21 23:56 34.33380 -120.08700 5349 ft 253 kts 356°
2026-04-21 23:56 34.35137 -120.08730 5005 ft 250 kts 356°
2026-04-21 23:57 34.36860 -120.08761 4680 ft 246 kts 356°
2026-04-21 23:57 34.38560 -120.08747 4349 ft 244 kts
2026-04-21 23:57 34.40195 -120.08147 3936 ft 247 kts 27°
2026-04-21 23:57 34.41491 -120.06832 3547 ft 249 kts 52°
2026-04-21 23:58 34.42251 -120.04931 3058 ft 253 kts 78°
2026-04-21 23:58 34.42382 -120.02837 2681 ft 250 kts 90°
2026-04-21 23:58 34.42411 -120.00774 2480 ft 240 kts 90°
2026-04-21 23:58 34.42459 -119.98807 2156 ft 226 kts 89°
2026-04-21 23:59 34.42502 -119.96970 1868 ft 210 kts 89°
2026-04-21 23:59 34.42539 -119.95317 1631 ft 183 kts 90°
2026-04-21 23:59 34.42572 -119.93857 1405 ft 166 kts 90°
2026-04-21 23:59 34.42601 -119.92584 1235 ft 141 kts 90°
2026-04-22 00:00 34.42627 -119.91396 1009 ft 136 kts 90°
2026-04-22 00:00 34.42648 -119.90331 835 ft 130 kts 91°
2026-04-22 00:00 34.42668 -119.89255 667 ft 128 kts 92°
2026-04-22 00:00 34.42696 -119.88162 511 ft 126 kts 91°
2026-04-22 00:01 34.42716 -119.87141 335 ft 119 kts 92°
2026-04-22 00:01 34.42739 -119.86131 174 ft 122 kts 92°
2026-04-22 00:01 34.42760 -119.85120 39 ft 114 kts 91°
2026-04-22 00:01 34.42775 -119.84306 30 ft 59 kts 85°
2026-04-22 00:02 34.42779 -119.84010 30 ft 22 kts 88°
2026-04-22 00:02 34.42803 -119.83892 29 ft 12 kts 30°
2026-04-22 00:02 34.42860 -119.83894 29 ft 5 kts 346°
2026-04-22 00:02 34.42864 -119.83895 29 ft 0 kts 346°
2026-04-22 00:03 34.42889 -119.83903 30 ft 6 kts 346°
2026-04-22 00:03 34.42956 -119.83923 30 ft 12 kts 347°
2026-04-22 00:03 34.43045 -119.83948 30 ft 11 kts 347°
2026-04-22 00:03 34.43095 -119.83901 30 ft 12 kts 71°
2026-04-22 00:04 34.43129 -119.83782 30 ft 17 kts 71°
2026-04-22 00:04 34.43166 -119.83653 30 ft 15 kts 70°
2026-04-22 00:04 34.43205 -119.83522 30 ft 15 kts 67°
2026-04-22 00:04 34.43274 -119.83460 30 ft 12 kts 349°
2026-04-22 00:05 34.43290 -119.83465 31 ft 0 kts 346°